Temp
75 73 69 67 58 52 45 48 52 52 51 54 57 52 48 49 47 43 59 65 66 66 69 68 75 75 75 75 75 75 75 76 75 75 76 77 77 77 77 78 78 77 76 76 76 76 76 77 77
72 74 67 59 51 45 44 50 49 51 55 55 54 53 49 46 56 55 56 62 66 66 67 67 74 74 74 74 74 74 74 74 74 74 74 74 75 76 77 77 77 77 77 77 76 75 75 75 76
73 72 60 50 45 42 43 48 50 55 56 56 51 52 50 49 55 54 57 61 62 61 63 66 73 73 73 73 73 73 73 73 73 73 73 73 73 73 73 74 75 76 76 76 76 76 75 75 75
68 64 58 47 42 45 46 47 52 55 54 56 52 47 52 54 53 54 59 60 61 59 60 63 72 72 72 72 72 72 72 72 72 72 72 72 72 72 72 72 72 73 75 76 76 75 76 76 74
64 58 47 43 43 46 47 52 52 49 50 50 52 45 46 54 56 57 56 58 55 56 57 57 69 71 71 71 71 71 71 71 71 71 71 71 70 71 70 70 70 71 72 74 74 75 75 75 75
59 56 45 40 44 48 46 50 51 49 49 50 48 46 44 53 54 54 54 54 55 55 56 57 64 68 69 69 69 69 70 70 70 70 70 70 69 69 69 69 69 69 71 72 74 74 75 75 75
57 50 44 43 44 45 48 51 46 46 46 47 51 43 45 51 53 54 52 53 54 55 55 54 53 60 62 64 66 68 69 69 69 69 69 68 68 68 67 67 67 68 69 70 71 72 74 75 74
56 52 45 43 44 43 49 50 51 47 45 54 51 42 40 50 53 53 53 53 53 53 53 53 53 54 53 51 63 66 66 66 66 66 66 66 66 64 64 66 64 67 68 69 69 70 71 74 74
60 48 43 45 46 43 50 48 51 52 48 49 49 46 48 53 52 51 49 49 50 54 51 52 52 53 53 55 59 60 60 63 62 58 60 60 52 50 55 59 65 66 67 67 67 68 69 69 68
53 45 45 48 48 45 47 47 47 46 44 45 47 49 50 50 46 46 46 47 48 50 52 53 52 51 52 56 53 50 52 51 49 48 48 49 48 48 58 60 62 64 64 65 65 65 65 64 60
50 44 48 48 50 51 47 45 48 44 41 42 41 44 47 46 45 44 45 45 46 48 50 52 51 53 51 50 52 48 49 47 48 49 50 47 51 47 47 45 47 46 54 50 52 52 52 54 54
46 49 50 50 52 50 45 47 43 43 41 46 46 44 44 43 44 44 44 45 46 47 51 51 51 50 50 49 49 48 49 49 49 49 50 48 46 44 44 44 45 45 46 46 46 46 49 50 52
46 47 49 49 49 47 49 43 43 41 46 46 47 46 43 42 43 45 46 49 49 48 49 50 49 50 50 49 48 48 47 47 47 48 48 47 47 45 44 44 44 44 45 45 45 45 47 47 49
48 49 48 49 48 48 44 42 45 43 45 45 44 41 41 42 44 44 47 46 45 46 48 48 49 50 50 49 49 49 48 47 47 47 47 48 47 46 47 45 44 44 44 45 45 45 45 46 47
50 43 45 44 46 45 47 39 38 42 43 41 40 38 40 42 44 42 44 43 43 45 49 47 49 51 50 50 50 50 49 50 49 48 47 46 46 46 45 45 44 43 44 45 45 45 45 45 48
46 44 38 43 46 46 44 30 39 41 40 38 37 35 39 40 41 41 44 46 46 46 50 49 50 49 48 49 49 49 49 49 48 49 49 49 47 46 44 44 44 44 43 43 43 43 43 43 44
43 36 37 40 45 44 40 32 37 39 39 37 34 34 36 39 42 45 46 48 47 51 49 47 48 48 49 49 48 48 48 48 48 48 48 49 49 50 48 46 44 45 43 41 43 45 42 42 42
36 35 37 36 38 40 35 32 36 38 38 35 33 35 36 39 42 44 46 48 47 49 48 48 49 48 49 49 48 48 48 48 48 48 48 48 48 49 48 48 47 47 43 42 40 41 42 42 42
40 38 36 36 41 37 33 32 35 37 37 35 34 35 36 37 41 43 47 47 48 48 48 47 46 47 47 46 45 45 44 46 46 47 48 48 48 48 48 47 47 47 45 42 42 40 40 40 40
41 37 33 36 41 36 32 30 33 35 35 33 33 34 34 38 40 43 45 45 48 48 47 46 45 46 47 47 46 46 46 46 47 47 48 48 48 47 47 46 46 46 45 45 44 39 39 39 40
38 35 32 34 36 36 33 27 28 34 34 36 38 34 36 38 39 41 42 44 46 46 45 45 45 46 46 47 46 46 46 46 45 45 45 46 47 47 47 46 46 46 45 43 44 42 39 39 39
34 40 39 37 32 26 30 21 24 27 31 34 32 32 35 38 40 41 42 42 43 45 46 45 45 45 46 46 44 42 40 39 42 44 45 45 46 46 46 46 46 45 45 44 44 45 41 39 38
39 40 38 36 31 27 27 24 17 26 26 30 31 34 36 38 39 39 41 42 45 46 45 45 45 45 45 44 43 41 40 41 43 44 42 43 44 44 45 46 45 45 45 44 45 44 44 44 43
43 38 37 33 30 24 22 24 16 21 26 29 32 34 36 38 39 40 42 43 44 45 44 44 44 45 46 45 42 40 39 40 40 41 40 41 42 43 44 45 44 44 44 45 44 44 44 44 44
36 31 27 28 26 24 26 23 18 27 30 29 30 33 35 38 38 39 39 41 42 41 43 44 43 42 44 43 42 40 39 40 41 40 40 39 40 41 43 44 44 44 45 45 44 44 44 44 42
32 29 25 25 22 22 29 21 26 31 32 32 33 34 36 36 38 38 40 42 41 41 43 41 40 40 43 43 40 40 39 40 41 40 40 40 40 41 44 45 44 44 45 45 44 44 43 43 42
33 27 29 25 20 18 22 22 26 31 30 31 31 33 33 35 37 37 40 42 41 41 41 40 39 41 43 42 39 39 39 40 40 41 41 40 40 42 44 45 44 44 44 44 44 43 42 43 43
35 33 26 24 12 17 17 16 20 25 27 28 29 30 33 35 36 37 38 41 40 41 42 40 40 40 42 42 39 39 38 39 40 42 40 40 40 41 43 43 44 44 44 44 44 43 43 42 44
31 28 24 23 20 11 9 20 23 23 26 25 27 30 32 34 35 36 38 41 41 42 41 41 39 39 40 39 39 38 37 38 38 40 40 40 41 41 41 42 41 43 43 44 43 43 44 43 43
30 25 24 17 15 12 8 16 31 25 26 28 29 31 33 35 36 37 38 40 39 40 40 39 38 39 40 39 38 37 37 37 36 36 39 41 41 42 42 42 42 41 42 43 42 42 43 42 43
MSLP
1011.41 1011.58 1011.75 1012.22 1014.23 1016.56 1019.06 1020.42 1020.74 1021.03 1021.65 1022.45 1021.99 1022.22 1023.19 1023.55 1023.93 1024.85 1024.57 1024.29 1024.05 1023.70 1023.22 1022.82 1021.97 1021.58 1021.33 1020.92 1020.55 1020.06 1019.61 1019.23 1019.10 1018.79 1018.24 1017.70 1017.40 1017.04 1016.71 1016.35 1016.21 1015.94 1015.54 1015.21 1015.13 1014.97 1014.85 1014.81 1014.85
1011.52 1011.79 1012.29 1013.73 1016.22 1018.79 1020.78 1021.23 1021.87 1022.13 1022.11 1022.58 1022.81 1023.47 1023.86 1024.74 1024.67 1024.82 1024.84 1024.63 1024.12 1023.88 1023.57 1023.10 1022.37 1022.03 1021.73 1021.35 1020.99 1020.56 1020.02 1019.60 1019.42 1019.06 1018.60 1018.16 1017.80 1017.39 1016.97 1016.60 1016.27 1016.01 1015.73 1015.48 1015.24 1015.12 1014.89 1014.72 1014.61
1011.64 1011.94 1013.91 1016.20 1019.06 1021.03 1021.90 1022.28 1022.40 1022.78 1022.66 1023.01 1023.64 1024.16 1024.64 1025.55 1025.35 1025.34 1025.14 1024.68 1024.30 1024.12 1023.72 1023.17 1022.49 1022.18 1021.80 1021.42 1021.11 1020.75 1020.32 1019.98 1019.69 1019.33 1018.91 1018.56 1018.20 1017.88 1017.43 1016.98 1016.46 1016.05 1015.78 1015.55 1015.36 1015.11 1014.94 1014.90 1014.62
1012.01 1013.16 1016.02 1018.33 1021.02 1022.27 1022.66 1023.00 1022.93 1022.78 1023.21 1023.53 1024.18 1025.10 1025.60 1026.14 1025.97 1025.75 1025.28 1024.82 1024.62 1024.43 1024.03 1023.49 1022.72 1022.29 1021.96 1021.49 1021.15 1020.80 1020.41 1020.03 1019.74 1019.33 1019.09 1018.68 1018.27 1017.99 1017.59 1017.35 1017.08 1016.41 1015.89 1015.65 1015.42 1015.14 1015.02 1014.72 1014.61
1012.85 1014.94 1018.00 1020.61 1021.98 1022.70 1023.27 1023.45 1023.33 1023.69 1024.29 1024.64 1024.62 1025.98 1026.35 1026.30 1026.14 1025.77 1025.68 1025.37 1025.20 1024.81 1024.31 1023.82 1023.05 1022.56 1022.14 1021.66 1021.31 1020.92 1020.45 1019.91 1019.64 1019.32 1018.97 1018.70 1018.42 1018.08 1017.68 1017.43 1017.26 1016.70 1016.32 1015.70 1015.43 1015.08 1014.88 1014.76 1014.61
1014.24 1016.01 1019.12 1021.25 1022.34 1023.15 1023.94 1024.05 1024.24 1024.77 1025.28 1025.25 1025.50 1026.14 1026.81 1026.64 1026.48 1026.21 1025.92 1025.65 1025.29 1024.95 1024.44 1023.90 1023.44 1022.96 1022.42 1021.97 1021.44 1020.98 1020.38 1019.84 1019.42 1019.13 1018.81 1018.54 1018.29 1018.04 1017.90 1017.54 1017.29 1016.95 1016.39 1015.91 1015.29 1015.01 1014.80 1014.71 1014.51
1014.76 1017.18 1019.85 1021.32 1022.61 1023.49 1024.08 1024.50 1025.35 1025.75 1025.81 1025.93 1025.97 1026.63 1026.95 1026.79 1026.68 1026.43 1026.09 1025.50 1025.08 1024.69 1024.35 1023.88 1023.58 1023.18 1022.66 1022.33 1021.69 1020.91 1020.27 1019.68 1019.35 1018.95 1018.54 1018.36 1018.14 1017.87 1017.95 1017.76 1017.36 1016.84 1016.36 1015.99 1015.56 1015.12 1014.58 1014.45 1014.45
1015.33 1017.61 1020.52 1021.84 1022.88 1023.87 1024.52 1025.10 1025.71 1025.99 1026.36 1026.19 1026.36 1027.13 1027.38 1027.20 1026.87 1026.50 1026.10 1025.83 1025.42 1024.92 1024.47 1024.00 1023.47 1022.90 1022.51 1022.04 1021.43 1020.67 1020.35 1020.05 1019.55 1018.97 1018.73 1018.24 1018.09 1018.17 1017.90 1017.55 1017.45 1016.68 1016.31 1015.82 1015.56 1015.26 1014.67 1014.23 1014.09
1015.63 1018.16 1021.06 1022.14 1022.90 1024.17 1024.68 1025.28 1026.03 1026.54 1026.77 1026.96 1027.17 1027.56 1027.83 1027.49 1027.03 1026.67 1026.45 1026.16 1025.74 1025.16 1024.68 1024.00 1023.51 1023.03 1022.50 1021.88 1021.18 1020.86 1020.37 1019.87 1019.53 1019.35 1018.90 1018.44 1018.42 1018.11 1017.78 1017.49 1016.89 1016.46 1016.25 1015.87 1015.59 1015.21 1014.86 1014.72 1014.33
1017.43 1019.77 1022.01 1022.85 1023.18 1024.25 1025.09 1025.55 1026.40 1027.20 1027.57 1027.85 1027.92 1027.98 1027.80 1027.61 1027.54 1027.46 1027.04 1026.64 1026.01 1025.28 1024.51 1024.00 1023.54 1023.07 1022.49 1021.83 1021.24 1020.74 1020.20 1019.66 1019.40 1018.90 1018.58 1018.39 1018.11 1017.77 1017.09 1016.84 1016.59 1016.17 1016.18 1015.89 1015.57 1015.35 1015.05 1014.85 1014.64
1019.63 1021.72 1023.00 1023.91 1023.98 1024.54 1025.51 1026.41 1027.08 1027.68 1028.51 1028.99 1029.04 1028.76 1028.44 1028.32 1028.15 1027.91 1027.42 1026.93 1026.37 1025.65 1024.87 1024.22 1023.69 1023.01 1022.61 1022.16 1021.41 1021.10 1020.40 1019.97 1019.35 1018.62 1018.23 1018.15 1017.59 1017.38 1017.17 1017.01 1016.61 1016.39 1016.17 1015.93 1015.74 1015.52 1015.30 1015.08 1014.80
1021.29 1023.05 1023.38 1024.57 1024.74 1025.23 1026.17 1027.01 1028.07 1028.50 1029.53 1029.45 1029.39 1029.41 1029.16 1028.88 1028.60 1028.25 1027.74 1026.94 1026.24 1025.67 1024.82 1024.19 1023.62 1022.96 1022.63 1022.23 1021.63 1021.22 1020.66 1020.01 1019.24 1018.76 1018.15 1017.82 1017.52 1017.09 1017.10 1016.61 1016.09 1015.96 1015.80 1015.73 1015.53 1015.30 1015.08 1014.84 1014.54
1022.20 1023.64 1024.30 1024.89 1025.28 1026.10 1026.69 1027.77 1028.42 1029.56 1029.79 1029.86 1029.69 1029.52 1029.68 1029.41 1028.88 1028.18 1027.48 1026.82 1026.12 1025.47 1024.99 1024.22 1023.89 1023.16 1022.60 1022.24 1021.61 1021.04 1020.46 1019.75 1019.18 1018.57 1017.90 1017.43 1017.02 1016.73 1016.50 1016.13 1015.82 1015.67 1015.36 1015.19 1015.04 1014.71 1014.68 1014.63 1014.41
1023.16 1023.95 1024.97 1025.61 1025.98 1026.82 1027.47 1028.46 1028.68 1030.24 1030.25 1029.96 1030.13 1030.45 1030.15 1029.66 1029.03 1028.31 1027.65 1027.19 1026.58 1025.94 1025.12 1024.54 1023.87 1023.21 1022.53 1021.87 1021.35 1020.69 1020.16 1019.45 1018.87 1018.34 1017.67 1017.09 1016.74 1016.46 1016.09 1015.82 1015.61 1015.31 1015.01 1014.83 1014.64 1014.41 1014.29 1014.23 1014.17
1023.26 1024.54 1025.41 1026.03 1026.46 1027.38 1027.35 1029.14 1030.25 1030.74 1030.74 1030.84 1031.07 1030.99 1030.60 1029.94 1029.23 1028.71 1027.96 1027.28 1026.58 1025.72 1024.90 1024.33 1023.63 1023.01 1022.43 1021.82 1021.15 1020.48 1019.82 1019.12 1018.56 1017.95 1017.35 1016.88 1016.40 1016.04 1015.71 1015.36 1015.19 1015.09 1014.88 1014.50 1014.20 1014.14 1013.90 1013.97 1013.73
1023.17 1024.25 1025.26 1026.05 1026.59 1027.13 1027.74 1029.99 1030.89 1031.16 1030.99 1031.62 1031.74 1031.30 1030.77 1030.24 1029.63 1028.66 1027.78 1026.94 1026.25 1025.35 1024.67 1024.19 1023.68 1023.04 1022.37 1021.52 1020.85 1020.22 1019.59 1018.98 1018.34 1017.53 1016.73 1016.34 1015.98 1015.61 1015.22 1014.95 1014.68 1014.46 1014.39 1014.34 1014.29 1014.03 1013.82 1013.78 1013.62
1023.39 1024.16 1024.88 1026.17 1026.62 1027.18 1028.13 1030.29 1031.23 1031.45 1031.42 1031.93 1031.99 1031.74 1031.24 1030.44 1029.60 1028.62 1027.78 1026.87 1025.95 1025.26 1024.76 1024.11 1023.60 1022.86 1022.01 1021.12 1020.44 1019.82 1019.10 1018.44 1017.69 1017.03 1016.51 1015.90 1015.36 1014.89 1014.67 1014.30 1013.98 1013.81 1013.78 1013.80 1013.67 1013.40 1013.41 1013.43 1013.26
1023.73 1024.14 1024.86 1025.93 1027.16 1027.72 1028.84 1030.50 1031.40 1031.56 1031.75 1032.30 1032.39 1032.10 1031.36 1030.40 1029.28 1028.23 1027.41 1026.79 1025.89 1025.27 1024.85 1024.26 1023.55 1022.81 1021.96 1021.01 1020.19 1019.48 1018.72 1017.98 1017.28 1016.62 1016.00 1015.44 1014.94 1014.35 1013.93 1013.51 1013.41 1013.34 1013.45 1013.42 1013.41 1013.33 1013.11 1013.08 1013.01
1023.95 1024.34 1025.15 1026.31 1027.29 1028.24 1029.55 1030.80 1031.36 1031.73 1032.00 1032.47 1032.39 1032.00 1031.36 1030.50 1029.32 1028.41 1027.41 1026.82 1025.69 1025.05 1024.72 1024.28 1023.57 1022.85 1021.91 1020.82 1019.93 1019.16 1018.33 1017.48 1016.78 1016.15 1015.48 1014.94 1014.42 1014.00 1013.55 1013.16 1012.88 1012.78 1012.78 1012.76 1012.82 1012.81 1012.77 1012.68 1012.57
1024.26 1024.81 1025.81 1026.79 1027.49 1028.49 1030.24 1031.17 1031.63 1031.99 1032.36 1032.78 1032.70 1032.29 1031.65 1030.39 1029.26 1028.38 1027.40 1026.77 1025.83 1025.11 1024.81 1024.24 1023.77 1023.00 1021.85 1020.84 1020.12 1019.32 1018.31 1017.33 1016.34 1015.64 1014.98 1014.28 1013.73 1013.31 1012.93 1012.60 1012.29 1012.07 1011.93 1011.81 1012.02 1012.27 1012.41 1012.25 1012.17
1024.75 1025.16 1025.94 1026.91 1027.95 1029.02 1030.23 1031.54 1032.15 1032.42 1032.55 1032.62 1032.50 1032.28 1031.58 1030.57 1029.40 1028.34 1027.46 1026.77 1026.06 1025.38 1025.06 1024.41 1023.86 1023.04 1021.97 1021.13 1020.09 1019.09 1018.21 1017.21 1016.10 1015.25 1014.38 1013.72 1013.18 1012.65 1012.20 1011.84 1011.64 1011.40 1011.29 1011.11 1011.26 1011.54 1011.80 1011.80 1011.70
1025.30 1025.64 1025.99 1026.63 1027.97 1029.38 1030.28 1032.14 1032.73 1033.25 1033.03 1032.98 1032.88 1032.21 1031.50 1030.52 1029.69 1028.73 1027.74 1026.87 1026.28 1025.66 1025.19 1024.56 1023.77 1022.96 1022.01 1021.15 1020.24 1019.41 1018.42 1017.12 1016.21 1015.09 1014.21 1013.41 1012.78 1012.26 1011.79 1011.22 1010.87 1010.59 1010.44 1010.36 1010.46 1010.64 1010.89 1011.09 1011.10
1025.73 1025.75 1025.98 1026.77 1028.06 1029.32 1030.94 1032.23 1033.52 1033.83 1033.79 1033.34 1033.19 1032.57 1031.75 1030.92 1029.91 1029.03 1028.14 1027.33 1026.53 1025.84 1025.21 1024.55 1023.70 1022.97 1022.14 1021.24 1020.44 1019.59 1018.53 1017.48 1016.26 1015.06 1014.32 1013.43 1012.65 1012.01 1011.47 1010.90 1010.43 1009.93 1009.60 1009.54 1009.69 1009.81 1010.00 1010.07 1010.22
1025.97 1026.17 1026.61 1027.43 1028.47 1029.90 1031.11 1032.12 1034.27 1034.35 1034.46 1033.80 1033.39 1032.56 1031.67 1030.70 1030.04 1029.21 1028.34 1027.50 1026.75 1026.11 1025.45 1024.53 1023.54 1022.70 1021.87 1021.01 1020.18 1019.44 1018.53 1017.39 1016.10 1015.10 1014.16 1013.32 1012.52 1011.71 1011.06 1010.44 1009.91 1009.21 1008.65 1008.63 1008.89 1009.10 1009.32 1009.37 1009.56
1026.68 1027.22 1027.89 1028.70 1029.42 1030.62 1031.25 1032.40 1033.70 1034.25 1034.39 1034.24 1033.48 1032.72 1031.93 1030.73 1029.94 1029.08 1028.09 1027.22 1026.69 1026.10 1025.33 1024.33 1023.60 1022.72 1021.79 1020.88 1020.08 1019.39 1018.59 1017.51 1016.19 1015.42 1014.37 1013.39 1012.40 1011.47 1010.58 1010.02 1009.42 1008.71 1008.00 1008.21 1008.49 1008.52 1008.61 1008.75 1009.01
1028.75 1029.17 1030.12 1030.94 1031.51 1031.88 1031.71 1032.77 1033.29 1033.93 1034.26 1034.20 1033.68 1032.86 1031.94 1031.21 1030.23 1029.42 1028.50 1027.61 1027.06 1026.32 1025.36 1024.51 1023.77 1022.79 1021.75 1020.91 1020.23 1019.41 1018.57 1017.51 1016.43 1015.61 1014.58 1013.56 1012.56 1011.60 1010.49 1009.76 1009.25 1008.82 1008.39 1008.21 1008.17 1008.06 1008.11 1008.31 1008.36
1029.41 1030.53 1031.47 1031.93 1032.94 1033.62 1032.86 1033.39 1033.69 1033.90 1034.09 1034.05 1033.78 1033.03 1032.25 1031.20 1030.38 1029.52 1028.73 1027.89 1027.27 1026.53 1025.72 1024.89 1024.01 1022.87 1021.89 1021.06 1020.28 1019.39 1018.63 1017.65 1016.59 1015.55 1014.82 1013.80 1012.77 1011.67 1010.54 1009.72 1009.20 1008.81 1008.48 1008.20 1007.93 1007.86 1007.88 1007.69 1007.83
1030.11 1031.63 1032.43 1033.44 1034.94 1035.27 1034.10 1034.18 1034.30 1034.59 1034.55 1034.48 1033.86 1033.14 1032.16 1031.27 1030.46 1029.62 1028.81 1028.02 1027.54 1026.77 1025.98 1025.08 1024.28 1023.22 1022.12 1021.24 1020.53 1019.72 1018.93 1018.00 1016.97 1015.81 1014.97 1014.05 1013.04 1011.84 1010.72 1009.87 1009.09 1008.62 1008.19 1007.97 1007.77 1007.60 1007.51 1007.52 1007.24
1031.33 1032.44 1033.94 1035.28 1036.74 1037.38 1036.88 1034.63 1034.42 1034.86 1034.94 1034.96 1034.32 1033.53 1032.54 1031.50 1030.69 1029.83 1029.01 1028.23 1027.67 1026.88 1026.09 1024.99 1024.18 1023.30 1022.29 1021.58 1020.81 1020.05 1019.15 1018.30 1017.41 1016.39 1015.29 1014.33 1013.32 1012.17 1011.06 1009.99 1009.29 1008.43 1007.94 1007.66 1007.47 1007.26 1007.11 1007.14 1007.19
1032.03 1033.25 1034.61 1036.29 1038.21 1038.96 1038.60 1035.12 1034.07 1034.67 1035.03 1034.96 1034.35 1033.73 1032.79 1031.90 1030.93 1030.15 1029.33 1028.48 1027.74 1026.92 1026.10 1025.11 1024.29 1023.49 1022.62 1021.84 1021.09 1020.25 1019.47 1018.66 1017.83 1016.84 1015.70 1014.64 1013.51 1012.36 1011.30 1010.12 1009.07 1008.42 1007.87 1007.31 1007.15 1007.08 1007.03 1007.02 1007.00
Wind_Speed
4 3 2 5 7 7 3 3 2 7 4 1 10 8 10 7 5 4 4 6 7 9 10 13 21 22 23 23 23 23 22 20 22 22 21 20 19 19 20 18 17 17 18 19 17 13 11 11 10
2 1 5 3 7 5 2 3 5 5 2 6 6 4 7 4 3 2 5 9 9 8 9 10 21 21 21 22 22 22 22 21 21 21 21 20 21 21 19 18 18 16 16 16 16 16 15 11 11
2 4 6 6 5 4 2 3 5 4 9 3 4 4 3 4 3 4 6 8 7 8 7 11 21 22 22 22 23 22 21 21 20 21 20 21 18 19 21 22 20 16 17 15 15 15 14 13 12
3 6 6 8 5 2 1 5 5 4 5 8 3 6 4 4 3 5 6 9 8 8 8 11 21 22 23 23 23 23 21 20 20 20 19 20 20 20 19 18 19 21 17 17 16 15 14 13 12
5 5 7 6 3 3 3 3 11 7 4 7 3 3 4 8 7 7 9 8 7 8 8 8 20 23 24 25 24 23 23 21 21 20 20 19 19 19 19 20 20 20 20 16 17 15 15 14 13
5 4 6 4 4 4 4 5 5 8 8 4 5 5 1 5 7 9 8 8 7 7 8 7 15 20 23 24 25 25 25 23 22 22 21 20 20 19 18 18 20 20 19 18 18 15 15 14 14
8 5 5 6 7 3 3 3 5 4 5 7 3 4 1 6 8 8 8 8 8 8 8 8 8 13 18 20 21 24 24 25 25 24 23 23 20 19 20 19 19 18 17 18 19 20 17 14 12
6 6 5 2 6 4 3 4 2 5 4 1 2 4 3 5 9 7 7 9 9 9 8 9 9 10 10 8 20 26 27 25 23 23 23 22 22 20 18 20 16 18 18 17 16 18 20 18 11
3 6 4 4 6 5 6 5 3 3 6 5 4 4 4 7 6 9 7 7 7 9 8 8 9 10 11 12 11 19 19 24 23 16 16 17 7 7 11 14 18 19 19 19 17 15 16 19 17
7 5 4 4 4 6 4 6 5 5 5 6 6 8 9 8 7 9 10 11 13 15 15 10 11 11 11 10 9 9 11 9 8 6 6 5 6 7 13 15 18 18 19 20 18 18 17 14 5
6 5 4 8 12 9 6 5 4 7 6 5 3 6 9 7 9 8 10 9 10 11 8 12 11 12 12 9 10 6 5 5 8 11 8 6 7 4 5 4 4 4 12 4 7 7 4 5 5
10 9 5 6 5 6 5 6 7 7 3 4 4 4 6 11 12 11 11 11 12 13 15 15 13 12 11 9 8 7 8 8 7 8 11 7 5 4 5 4 5 4 4 5 5 3 5 6 6
10 3 7 10 13 9 11 7 9 7 6 5 6 12 11 9 9 10 10 13 15 15 15 14 11 14 14 13 9 10 10 9 10 9 10 8 8 6 4 5 4 5 4 4 5 4 4 5 6
7 16 11 8 8 6 10 3 5 6 5 11 12 10 10 11 13 11 13 15 12 12 12 12 14 13 12 11 12 9 8 10 8 8 8 10 8 6 6 5 5 4 4 5 4 5 4 4 4
8 9 8 2 3 6 9 9 5 4 5 11 11 10 10 11 12 13 13 12 9 8 10 11 16 15 14 14 12 10 9 10 9 9 10 9 8 8 8 6 4 4 4 6 4 5 3 4 4
5 5 4 4 6 2 3 3 4 5 10 9 10 10 12 11 11 11 10 10 10 10 15 13 13 14 15 16 13 10 9 9 9 9 9 11 11 9 7 6 6 4 4 4 4 4 4 4 4
5 1 3 4 1 4 3 5 2 3 8 8 9 10 11 12 12 13 13 14 10 17 16 14 14 15 20 14 11 11 12 9 8 9 9 12 13 11 9 7 6 7 4 4 5 6 4 4 4
3 1 2 4 1 6 8 6 3 4 8 8 8 10 11 15 17 15 14 15 11 14 16 16 16 16 20 12 11 9 9 9 9 9 9 13 11 13 11 9 9 7 6 6 4 6 4 5 5
3 1 3 2 2 5 6 7 4 3 9 11 11 13 14 15 13 11 15 14 16 15 19 15 18 16 16 11 11 11 12 11 10 9 13 13 11 12 11 9 9 8 7 8 6 4 6 5 4
3 4 2 2 2 6 5 4 2 3 4 4 8 13 13 16 16 17 16 15 17 19 18 18 18 18 16 11 12 11 11 12 12 9 11 12 12 12 11 11 9 9 7 9 7 5 5 4 4
2 2 2 3 3 5 8 1 2 3 4 7 12 8 10 16 18 19 18 17 17 16 17 19 18 19 16 17 12 11 12 9 8 10 10 11 13 13 13 12 10 10 9 8 9 7 7 7 4
1 2 3 6 5 3 1 3 4 6 11 12 11 11 14 16 15 17 18 18 17 16 18 18 18 18 15 18 15 17 14 14 13 12 11 11 12 12 13 12 12 11 8 9 8 8 8 6 7
7 4 1 4 3 4 1 2 3 5 9 18 14 14 15 16 16 17 18 16 18 17 17 16 18 18 17 16 14 12 14 12 12 11 14 13 11 12 12 12 12 11 8 9 9 9 8 7 7
6 2 5 4 3 2 1 3 2 5 11 14 12 15 17 17 17 16 16 16 16 16 16 16 17 18 18 17 16 16 17 17 14 14 12 10 9 8 9 11 10 12 10 8 7 9 9 8 8
11 6 4 4 4 3 2 2 3 5 8 7 15 16 17 16 17 18 18 21 17 19 19 17 17 19 19 18 17 17 16 17 17 15 11 14 10 9 9 11 9 10 5 6 6 8 8 9 8
5 4 4 4 4 6 4 2 4 5 6 7 9 11 14 16 15 17 17 20 17 19 19 18 17 19 18 17 17 15 15 11 11 13 12 10 10 11 14 8 8 9 6 4 6 4 5 6 7
4 7 1 2 1 3 2 2 1 7 10 12 11 13 16 16 16 17 16 16 17 17 19 19 18 18 17 18 15 15 14 16 14 13 13 11 13 12 13 10 8 7 6 6 4 4 5 8 7
8 2 2 4 3 7 4 4 4 9 12 12 15 16 17 16 16 16 15 16 15 16 16 16 16 18 18 18 14 14 14 15 15 13 16 15 15 16 13 15 8 7 5 5 4 3 4 6 5
5 4 7 5 3 4 3 6 6 4 8 9 11 13 16 17 17 16 14 14 16 16 17 17 16 18 17 16 14 14 14 14 14 14 15 15 16 16 17 12 12 11 6 4 4 4 3 4 3
3 3 3 6 5 2 4 9 7 3 6 6 11 12 14 14 15 15 15 15 15 18 18 16 16 17 17 15 15 14 14 14 13 13 16 16 17 17 17 16 12 10 11 6 4 4 3 3 4
Wind_Direction
355 33 92 42 56 66 60 15 349 351 81 141 51 51 96 45 40 118 275 295 313 330 345 340 359 4 4 2 358 356 352 357 358 352 351 353 352 353 356 359 3 4 360 3 5 346 316 304 280
12 212 43 71 80 69 334 71 35 7 109 169 67 27 39 63 45 31 6 335 351 351 357 339 3 359 355 354 351 350 347 352 348 346 347 352 350 344 345 345 351 355 359 359 358 354 354 337 316
143 44 71 74 65 90 142 22 286 77 48 21 97 66 69 356 346 13 327 343 14 0 348 347 357 352 351 349 347 345 344 338 341 340 342 341 342 345 348 346 340 339 345 347 350 349 347 341 340
51 20 39 69 76 45 69 352 289 214 50 38 92 58 65 40 18 300 345 9 6 350 344 344 352 351 348 346 343 341 339 338 336 338 338 335 335 336 339 339 336 338 331 332 338 339 335 336 334
41 60 64 79 84 115 50 12 31 50 87 20 23 43 49 342 324 15 359 358 359 330 333 334 347 347 343 340 337 334 332 330 331 328 331 332 329 330 334 334 332 332 327 325 322 324 328 325 322
50 88 71 142 152 114 79 25 39 42 26 6 66 89 85 328 355 333 340 343 336 326 324 331 338 341 340 338 333 328 325 322 325 322 322 325 325 324 333 327 325 326 322 325 318 317 314 315 317
106 79 137 132 149 112 108 82 36 71 31 11 5 78 325 352 347 339 337 342 343 337 337 332 331 335 336 335 334 328 323 327 320 317 316 320 316 316 319 322 325 314 322 322 321 325 310 298 308
95 90 92 121 173 140 58 90 93 59 19 292 39 48 355 338 338 335 349 339 334 329 329 331 331 335 333 323 326 325 324 319 317 319 319 317 317 318 315 315 307 310 316 311 315 316 322 307 294
90 71 128 152 154 124 159 117 358 45 67 31 37 68 335 320 334 2 349 332 330 336 322 320 329 326 327 319 317 327 319 322 320 313 313 322 301 291 300 293 305 307 309 317 308 308 311 319 341
56 74 56 300 117 118 87 96 116 75 32 28 30 8 358 1 1 353 342 338 338 333 333 326 327 323 319 321 322 320 316 313 306 291 278 281 284 283 293 298 302 297 309 309 308 313 312 317 307
21 82 123 43 92 104 97 60 59 129 47 31 25 321 342 350 348 342 333 330 315 312 312 322 318 330 324 329 328 316 310 311 308 310 310 286 296 280 283 275 271 278 291 282 296 301 288 294 296
93 42 91 130 108 90 82 102 73 54 80 65 29 337 359 356 348 334 323 317 325 331 328 331 327 336 336 324 325 316 322 311 309 302 303 304 289 275 267 260 264 253 259 270 262 259 286 294 284
79 114 55 92 83 72 95 83 94 62 49 350 22 22 0 336 328 327 325 335 334 332 330 330 339 338 340 329 325 324 324 320 306 301 299 301 302 295 271 260 265 260 261 247 267 275 274 282 295
97 96 101 79 91 101 103 106 85 22 326 32 24 358 344 341 338 331 335 327 321 314 330 336 332 330 323 320 313 312 306 300 306 304 297 297 297 293 298 285 261 265 257 263 253 256 260 275 281
121 86 86 96 88 135 123 38 57 28 354 33 5 345 337 331 330 321 312 305 301 309 318 325 331 326 327 322 318 319 310 313 306 300 298 292 286 293 296 296 284 260 263 273 275 264 264 274 285
85 100 118 197 170 167 29 127 58 351 50 16 351 337 343 326 306 298 298 315 312 316 336 329 328 326 330 333 333 322 311 307 303 308 304 293 286 282 279 285 284 270 253 250 251 256 266 252 244
21 229 129 126 237 126 78 141 146 10 42 12 350 336 323 323 328 329 331 332 328 339 338 337 325 337 333 330 319 315 315 311 305 305 302 301 302 291 275 272 275 280 277 252 249 259 223 255 251
293 323 85 126 61 48 92 116 148 51 39 3 331 332 336 339 336 327 330 334 332 341 343 338 338 338 334 328 318 314 315 312 309 303 297 300 299 297 293 280 276 279 278 277 243 244 236 219 228
276 112 93 98 90 99 104 120 130 39 32 6 339 344 337 327 313 325 338 335 336 348 348 343 338 336 333 328 325 322 319 315 306 302 295 292 287 294 293 288 281 268 260 263 247 227 238 250 221
122 116 87 67 35 87 125 144 155 51 28 359 323 333 322 330 338 341 343 340 345 346 349 344 343 337 334 332 328 320 319 314 305 301 309 299 285 284 286 283 281 275 263 256 259 236 245 237 201
343 165 171 231 122 51 119 163 358 326 322 339 348 312 326 336 338 339 341 341 349 353 347 346 341 339 332 334 327 324 318 315 321 313 315 317 309 299 280 277 273 269 262 253 247 236 222 242 224
18 5 250 159 140 203 153 290 349 335 335 347 332 330 335 337 338 338 340 341 347 353 347 341 341 335 335 335 332 331 323 327 324 315 319 315 310 308 306 294 279 268 259 253 242 239 230 220 231
248 339 183 130 119 107 177 26 234 359 327 334 337 335 334 337 342 338 339 342 348 348 348 339 343 341 340 326 329 330 324 317 317 319 326 324 320 308 303 299 293 286 263 248 247 237 238 231 225
309 148 50 63 89 5 111 159 15 348 311 321 335 337 335 336 339 339 339 346 351 345 345 342 344 347 346 342 337 337 330 326 324 335 332 329 321 310 300 294 293 286 257 246 243 238 240 236 228
24 46 331 353 3 246 209 59 219 262 300 306 324 330 332 338 340 342 344 354 355 347 345 343 348 343 346 336 339 338 331 327 330 338 333 328 325 323 312 309 311 325 268 236 247 246 239 235 217
9 77 113 289 307 296 295 270 266 206 289 316 310 319 329 338 344 344 342 353 350 347 346 344 346 337 340 345 338 335 335 331 330 342 336 329 327 323 320 319 322 322 332 282 265 253 242 245 220
346 44 199 79 72 3 278 273 100 320 347 339 335 336 339 342 343 344 343 350 348 342 345 342 340 337 345 346 338 340 337 336 336 339 341 339 334 328 328 316 314 315 311 286 278 261 276 224 209
90 146 41 21 23 305 305 274 243 329 330 333 338 340 339 340 343 345 345 350 349 339 345 341 339 338 346 348 342 341 335 336 338 344 347 344 340 341 344 343 318 305 298 304 295 279 265 266 224
354 32 53 107 96 176 314 278 194 256 298 319 323 332 337 339 341 341 342 348 347 345 348 341 343 343 343 345 340 341 337 340 343 347 349 348 344 342 343 340 345 323 298 295 298 284 271 228 298
97 132 112 114 270 74 142 277 158 208 281 302 328 331 335 332 337 338 343 346 348 352 348 345 342 343 345 342 342 343 341 343 347 347 344 348 350 348 349 340 336 335 330 281 263 278 305 250 254